{"data":{"norad_id":67368,"epoch":"2026-05-25T02:50:30.660288Z","epoch_age_seconds":58627,"freshness":"FRESH","line1":"1 67368U 26004F   26145.11841042  .00003188  00000+0  35031-3 0  9995","line2":"2 67368  97.8043 144.1248 0007347 195.9490 164.1496 14.88323372 19861","mean_motion":14.88323372,"eccentricity":0.0007347,"inclination_deg":97.8043,"raan_deg":144.1248,"arg_perigee_deg":195.949,"mean_anomaly_deg":164.1496,"bstar":0.00035031,"rev_number":1986,"period_min":96.753167160503,"perigee_km":598.04464273664,"apogee_km":608.30298084348,"semimajor_km":6981.3108117901,"source":"CELESTRAK","updated_at":"2026-05-25T13:38:13.578900Z"}}